Weather in Novoaleksandrovka

Russia / Rostov Oblast     47°04′44″N   39°30′30″E
temp.,
°C
wind,
m/s
gust,
m/s
humid.,
%
clouds,
%
prec.,
mm/h
press.,
hPa
HPBL,
m
10 may, mon
mon1000:00+7nw237819 0.2 102266
03:00+6nw4108032 0.3 1022233
06:00+6nw5117926 0.0 1022401
09:00+11nw81157100 0.0 10211565
12:00+11nw71158100 0.2 10201860
15:00+11nw71263100 0.5 10191597
18:00+10wnw71270100 0.6 10171331
21:00+8wnw81287100 3.3 10161149
11 may, tue
tue1100:00+7w91492100 5.9 10131150
03:00+8wsw81192100 10.1 10101038
06:00+8sw4896100 3.9 1008517
09:00+8s3595100 7.2 1008358
12:00+9nw349282 1.3 1008383
15:00+10ssw468597 1.8 1011655
18:00+8sse91393100 0.7 1014747
21:00+8se101590100 2.1 10171227
12 may, wed
wed1200:00+8se61390100 0.9 10171114
03:00+8ese51191100 1.1 1017420
06:00+8ese4990100 0.6 1018291
09:00+13se687485 0.6 1017839
12:00+14se3670100 0.2 10171002
15:00+17sse476691 0.3 10161097
18:00+17se366915 0.1 1016354
21:00+13ese35850 0.1 101661
13 may, thu
thu1300:00+12e34905 0.0 101663
03:00+11e468597 0.0 1015105
06:00+11e48855 0.0 1016170
09:00+18e696856 0.0 1015547
12:00+22ese786029 0.0 10151087
15:00+23ese68599 0.0 10141105
18:00+22e61071100 0.0 1014607
21:00+17e4128341 0.0 1014220
14 may, fri
fri1400:00+16e411850 0.0 1013187
03:00+15ese412865 0.0 1013191
06:00+16ese513825 0.0 1013261
09:00+21ese610669 0.0 1013484
12:00+25ese6858100 0.0 1013745
15:00+27ese565616 0.0 1012902
18:00+25ese597064 0.0 1012440
21:00+20e49885 0.0 1012151